Change the Weather History Date:

Wednesday, June 5, 2013

  Actual Average (KTUL) Record (KTUL)
Temperature  
Mean Temperature 72 °F 75 °F  
Max Temperature 80 °F 85 °F 102 °F (1911)
Min Temperature 64 °F 65 °F 49 °F (1919)
Cooling Degree Days 7 10  
Month to date cooling degree days 47  
Year to date cooling degree days 281  
Since 1 June cooling degree days 47  
Growing Degree Days 22 (Base 50)    
Moisture  
Dew Point 64 °F    
Average Humidity 80    
Maximum Humidity 100    
Minimum Humidity 61    
Precipitation  
Precipitation 0.50 in 0.18 in 3.11 in (1952)
Month to date precipitation 0.92  
Year to date precipitation 17.42  
Sea Level Pressure  
Sea Level Pressure 29.94 in    
Wind  
Wind Speed 8 mph (NW)    
Max Wind Speed 17 mph    
Max Gust Speed 24 mph    
Visibility 10 miles    
Events Rain , Thunderstorm    
T = Trace of Precipitation, MM = Missing Value Source: NWS Daily Summary

Daily Weather History Graph

Daily Weather History Graph

Search for Another Location

Airport or City:

Trip Planner

Search our weather history database for the weather conditions in past years. The results will help you decide how hot, cold, wet, or windy it might be!

Date:

Astronomy

Jun. 05, 2013 Rise Set
Actual Time 6:04 AM CDT 8:36 PM CDT
Civil Twilight 5:34 AM CDT 9:06 PM CDT
Nautical Twilight 4:57 AM CDT 9:44 PM CDT
Astronomical Twilight 4:16 AM CDT 10:25 PM CDT
Moon 4:05 AM CDT (6/5) 6:07 PM CDT (6/5)
Length of Visible Light 15h 32m
Length of Day
14h 32m
Waning Crescent, 8% of the Moon is Illuminated
Jun 5
Waning Crescent
Jun 8
New
Jun 16
First Quarter
Jun 23
Full
Jun 29
Last Quarter

Hourly Weather History & Observations

Time (CDT) Temp. Heat Index Dew Point Humidity Pressure Visibility Wind Dir Wind Speed Gust Speed Precip Events Conditions
12:15 AM 69.8 °F - 64.4 °F 83% 29.96 in 10.0 mi ESE 10.4 mph - N/A   Overcast
12:35 AM 69.8 °F - 64.4 °F 83% 29.96 in 10.0 mi ESE 9.2 mph - N/A   Overcast
12:55 AM 69.8 °F - 62.6 °F 78% 29.96 in 10.0 mi ESE 9.2 mph - N/A   Mostly Cloudy
1:15 AM 69.8 °F - 62.6 °F 78% 29.96 in 10.0 mi ESE 8.1 mph - N/A   Mostly Cloudy
1:35 AM 69.8 °F - 62.6 °F 78% 29.95 in 10.0 mi ESE 8.1 mph - N/A   Scattered Clouds
1:55 AM 69.8 °F - 62.6 °F 78% 29.95 in 10.0 mi SE 8.1 mph - N/A   Mostly Cloudy
2:15 AM 69.8 °F - 62.6 °F 78% 29.95 in 10.0 mi SE 6.9 mph - N/A   Scattered Clouds
2:35 AM 69.8 °F - 62.6 °F 78% 29.95 in 10.0 mi SE 6.9 mph - N/A   Scattered Clouds
2:55 AM 69.8 °F - 62.6 °F 78% 29.93 in 10.0 mi SE 5.8 mph - N/A   Mostly Cloudy
3:15 AM 69.8 °F - 62.6 °F 78% 29.92 in 10.0 mi ESE 6.9 mph - N/A   Mostly Cloudy
3:35 AM 69.8 °F - 62.6 °F 78% 29.91 in 10.0 mi ESE 8.1 mph - N/A   Mostly Cloudy
3:55 AM 68.0 °F - 62.6 °F 83% 29.91 in 10.0 mi ESE 4.6 mph - N/A   Mostly Cloudy
4:15 AM 68.0 °F - 62.6 °F 83% 29.90 in 10.0 mi ESE 4.6 mph - N/A   Mostly Cloudy
4:35 AM 68.0 °F - 62.6 °F 83% 29.89 in 10.0 mi ESE 5.8 mph - N/A   Scattered Clouds
4:55 AM 68.0 °F - 62.6 °F 83% 29.90 in 10.0 mi ESE 4.6 mph - N/A   Scattered Clouds
5:15 AM 68.0 °F - 62.6 °F 83% 29.90 in 10.0 mi SE 4.6 mph - N/A Thunderstorm Scattered Clouds
5:35 AM 68.0 °F - 62.6 °F 83% 29.90 in 10.0 mi SSE 4.6 mph - 0.01 in Thunderstorm Mostly Cloudy
5:55 AM 68.0 °F - 62.6 °F 83% 29.91 in 7.0 mi South 5.8 mph - 0.06 in Rain , Thunderstorm Light Thunderstorms and Rain
6:15 AM 68.0 °F - 62.6 °F 83% 29.98 in 10.0 mi WNW 17.3 mph 24.2 mph N/A Rain , Thunderstorm Light Thunderstorms and Rain
6:35 AM 64.4 °F - 62.6 °F 94% 29.98 in 2.5 mi WNW 3.5 mph - 0.14 in Rain , Thunderstorm Heavy Thunderstorms and Rain
6:55 AM 64.4 °F - 62.6 °F 94% 30.00 in 5.0 mi WSW 4.6 mph - 0.19 in Rain , Thunderstorm Rain
7:15 AM 64.4 °F - 62.6 °F 94% 30.01 in 0.8 mi WSW 5.8 mph - 0.04 in Rain , Thunderstorm Thunderstorms and Rain
7:35 AM 64.4 °F - 62.6 °F 94% 30.01 in 4.0 mi SW 8.1 mph - 0.12 in Rain Rain
7:55 AM 64.4 °F - 62.6 °F 94% 30.00 in 4.0 mi South 9.2 mph - 0.19 in Rain , Thunderstorm Heavy Thunderstorms and Rain
8:35 AM 64.4 °F - 62.6 °F 94% 29.90 in 10.0 mi ESE 12.7 mph - 0.06 in Rain , Thunderstorm Light Thunderstorms and Rain
8:55 AM 64.4 °F - 62.6 °F 94% 29.96 in 10.0 mi Calm Calm - 0.06 in Rain Light Rain
9:15 AM 64.4 °F - 62.6 °F 94% 29.96 in 10.0 mi Calm Calm - N/A   Light Drizzle
9:35 AM 64.4 °F - 64.4 °F 100% 29.99 in 10.0 mi SW 3.5 mph - N/A   Light Drizzle
9:55 AM 66.2 °F - 64.4 °F 94% 30.00 in 10.0 mi West 6.9 mph - N/A   Clear
10:15 AM 66.2 °F - 64.4 °F 94% 29.99 in 10.0 mi West 4.6 mph - N/A   Clear
10:35 AM 68.0 °F - 64.4 °F 88% 29.95 in 10.0 mi SSE 9.2 mph - N/A   Scattered Clouds
10:55 AM 68.0 °F - 64.4 °F 88% 29.93 in 10.0 mi South 3.5 mph - N/A   Mostly Cloudy
11:15 AM 68.0 °F - 64.4 °F 88% 29.97 in 10.0 mi SSW 9.2 mph - N/A   Overcast
11:35 AM 68.0 °F - 64.4 °F 88% 29.98 in 10.0 mi SW 8.1 mph - N/A   Overcast
11:55 AM 69.8 °F - 64.4 °F 83% 29.95 in 10.0 mi SSW 6.9 mph - N/A   Mostly Cloudy
12:15 PM 69.8 °F - 64.4 °F 83% 29.95 in 10.0 mi WSW 5.8 mph - N/A   Scattered Clouds
12:35 PM 71.6 °F - 64.4 °F 78% 29.95 in 10.0 mi WSW 8.1 mph - N/A   Scattered Clouds
12:55 PM 71.6 °F - 64.4 °F 78% 29.95 in 10.0 mi West 6.9 mph - N/A   Scattered Clouds
1:15 PM 73.4 °F - 64.4 °F 73% 29.93 in 10.0 mi West 4.6 mph - N/A   Scattered Clouds
1:35 PM 73.4 °F - 66.2 °F 78% 29.93 in 10.0 mi WNW 6.9 mph - N/A   Clear
1:55 PM 75.2 °F - 66.2 °F 73% 29.93 in 10.0 mi WNW 8.1 mph - N/A   Clear
2:15 PM 77.0 °F - 66.2 °F 69% 29.93 in 10.0 mi WNW 10.4 mph - N/A   Clear
2:35 PM 77.0 °F - 66.2 °F 69% 29.93 in 10.0 mi WNW 12.7 mph 17.3 mph N/A   Scattered Clouds
2:55 PM 77.0 °F - 66.2 °F 69% 29.93 in 10.0 mi WNW 10.4 mph - N/A   Scattered Clouds
3:15 PM 77.0 °F - 66.2 °F 69% 29.92 in 10.0 mi West 12.7 mph 21.9 mph N/A   Scattered Clouds
3:35 PM 78.8 °F - 66.2 °F 65% 29.93 in 10.0 mi WNW 12.7 mph - N/A   Scattered Clouds
3:55 PM 78.8 °F - 66.2 °F 65% 29.92 in 10.0 mi WNW 12.7 mph 17.3 mph N/A   Clear
4:15 PM 78.8 °F - 66.2 °F 65% 29.92 in 10.0 mi NW 10.4 mph - N/A   Scattered Clouds
4:35 PM 78.8 °F - 66.2 °F 65% 29.91 in 10.0 mi WNW 9.2 mph - N/A   Scattered Clouds
4:55 PM 78.8 °F - 66.2 °F 65% 29.91 in 10.0 mi NW 9.2 mph - N/A   Clear
5:15 PM 78.8 °F - 66.2 °F 65% 29.91 in 10.0 mi NW 8.1 mph 17.3 mph N/A   Clear
5:35 PM 80.6 °F 82.7 °F 66.2 °F 61% 29.91 in 10.0 mi NW 8.1 mph - N/A   Clear
5:55 PM 78.8 °F - 66.2 °F 65% 29.91 in 10.0 mi NW 10.4 mph - N/A   Clear
6:15 PM 78.8 °F - 64.4 °F 61% 29.91 in 10.0 mi North 9.2 mph - N/A   Clear
6:35 PM 78.8 °F - 66.2 °F 65% 29.91 in 10.0 mi North 5.8 mph - N/A   Scattered Clouds
6:55 PM 77.0 °F - 66.2 °F 69% 29.91 in 10.0 mi North 8.1 mph - N/A   Clear
7:15 PM 77.0 °F - 66.2 °F 69% 29.91 in 10.0 mi North 8.1 mph - N/A   Clear
7:35 PM 77.0 °F - 64.4 °F 65% 29.91 in 10.0 mi North 9.2 mph - N/A   Clear
7:55 PM 73.4 °F - 66.2 °F 78% 29.91 in 10.0 mi NNE 5.8 mph - N/A   Clear
8:15 PM 73.4 °F - 64.4 °F 73% 29.92 in 10.0 mi North 6.9 mph - N/A   Clear
8:35 PM 71.6 °F - 64.4 °F 78% 29.92 in 10.0 mi North 5.8 mph - N/A   Clear
8:55 PM 71.6 °F - 64.4 °F 78% 29.93 in 10.0 mi North 4.6 mph - N/A   Clear
9:15 PM 69.8 °F - 64.4 °F 83% 29.93 in 10.0 mi North 8.1 mph - N/A   Clear
9:35 PM 69.8 °F - 64.4 °F 83% 29.94 in 10.0 mi North 9.2 mph - N/A   Clear
9:55 PM 69.8 °F - 62.6 °F 78% 29.96 in 10.0 mi North 5.8 mph - N/A   Clear
10:15 PM 69.8 °F - 64.4 °F 83% 29.97 in 10.0 mi North 6.9 mph - N/A   Clear
10:35 PM 69.8 °F - 64.4 °F 83% 29.98 in 10.0 mi North 5.8 mph - N/A   Clear
10:55 PM 68.0 °F - 64.4 °F 88% 29.98 in 10.0 mi NNE 4.6 mph - N/A   Clear
11:15 PM 68.0 °F - 62.6 °F 83% 29.98 in 10.0 mi NNE 4.6 mph - N/A   Clear
11:35 PM 66.2 °F - 62.6 °F 88% 29.98 in 10.0 mi North 4.6 mph - N/A   Clear
11:55 PM 66.2 °F - 62.6 °F 88% 29.98 in 10.0 mi Calm Calm - N/A   Clear